Location: Songkhla
(7.2000°N, 100.6000°E)
Time: 19:54:58
(UTC+07:00)

Lacrosse 4 Rocket - Pass Details

Date: 16 April 2026
Orbit: 505 x 567 km, 68.0° (Epoch: 20 May)

Event Time Altitude Azimuth Distance (km) Brightness Sun altitude
Rises 18:42:40 0° 317° (NW) 2,747 5.9 -4.9°
Reaches altitude 10° 18:45:18 10° 301° (WNW) 1,855 5.4 -5.5°
Maximum altitude 18:48:24 20° 253° (WSW) 1,320 4.2 -6.3°
Drops below altitude 10° 18:51:30 10° 204° (SSW) 1,856 4.2 -7.0°
Sets 18:54:10 0° 187° (S) 2,749 4.8 -7.7°
